TimeMST,TemperatureF,Dew PointF,Humidity,Sea Level PressureIn,VisibilityMPH,Wind Direction,Wind SpeedMPH,Gust SpeedMPH,PrecipitationIn,Events,Conditions,WindDirDegrees,DateUTC
12:15 AM,10.4,8.6,92,30.03,10.0,NW,6.9,-,N/A,,Clear,310,2013-11-05 07:15:00
12:35 AM,10.4,8.6,92,30.03,10.0,WNW,4.6,-,N/A,,Clear,300,2013-11-05 07:35:00
12:55 AM,10.4,8.6,92,30.03,10.0,NNW,6.9,-,N/A,,Clear,330,2013-11-05 07:55:00
1:15 AM,8.6,5.0,85,30.03,10.0,WNW,4.6,-,N/A,,Clear,300,2013-11-05 08:15:00
1:35 AM,8.6,5.0,85,30.03,10.0,NNW,8.1,-,N/A,,Clear,330,2013-11-05 08:35:00
1:55 AM,8.6,5.0,85,30.03,10.0,NW,5.8,-,N/A,,Clear,320,2013-11-05 08:55:00
2:15 AM,6.8,5.0,92,30.03,10.0,NW,4.6,-,N/A,,Clear,310,2013-11-05 09:15:00
2:35 AM,6.8,3.2,85,30.03,10.0,West,5.8,-,N/A,,Clear,270,2013-11-05 09:35:00
2:55 AM,5.0,3.2,92,30.03,10.0,WNW,5.8,-,N/A,,Clear,290,2013-11-05 09:55:00
3:15 AM,6.8,3.2,85,30.04,10.0,WNW,4.6,-,N/A,,Clear,290,2013-11-05 10:15:00
3:35 AM,6.8,3.2,85,30.03,10.0,WNW,3.5,-,N/A,,Clear,300,2013-11-05 10:35:00
3:55 AM,8.6,3.2,79,30.05,10.0,WNW,8.1,-,N/A,,Clear,300,2013-11-05 10:55:00
4:15 AM,8.6,3.2,79,30.05,10.0,NW,6.9,-,N/A,,Clear,310,2013-11-05 11:15:00
4:35 AM,5.0,3.2,92,30.06,10.0,West,6.9,-,N/A,,Clear,260,2013-11-05 11:35:00
4:55 AM,5.0,3.2,92,30.06,10.0,West,6.9,-,N/A,,Clear,270,2013-11-05 11:55:00
5:15 AM,5.0,1.4,85,30.08,10.0,West,5.8,-,N/A,,Clear,270,2013-11-05 12:15:00
5:35 AM,5.0,1.4,85,30.08,10.0,WNW,3.5,-,N/A,,Clear,290,2013-11-05 12:35:00
5:55 AM,5.0,1.4,85,30.08,10.0,Calm,Calm,-,N/A,,Clear,0,2013-11-05 12:55:00
6:15 AM,5.0,1.4,85,30.09,10.0,West,3.5,-,N/A,,Clear,260,2013-11-05 13:15:00
6:35 AM,5.0,1.4,85,30.09,10.0,West,4.6,-,N/A,,Clear,260,2013-11-05 13:35:00
6:55 AM,5.0,1.4,85,30.09,10.0,Calm,Calm,-,N/A,,Clear,0,2013-11-05 13:55:00
7:15 AM,5.0,1.4,85,30.10,10.0,WNW,4.6,-,N/A,,Clear,300,2013-11-05 14:15:00
7:35 AM,8.6,3.2,79,30.11,10.0,WNW,3.5,-,N/A,,Clear,290,2013-11-05 14:35:00
7:55 AM,10.4,5.0,79,30.12,10.0,NW,4.6,-,N/A,,Clear,310,2013-11-05 14:55:00
8:15 AM,12.2,6.8,79,30.13,10.0,WNW,6.9,-,N/A,,Clear,300,2013-11-05 15:15:00
8:35 AM,15.8,10.4,79,30.13,10.0,WNW,4.6,-,N/A,,Clear,300,2013-11-05 15:35:00
8:55 AM,17.6,12.2,79,30.14,10.0,WNW,4.6,-,N/A,,Clear,300,2013-11-05 15:55:00
9:15 AM,19.4,12.2,74,30.14,10.0,NW,4.6,-,N/A,,Clear,310,2013-11-05 16:15:00
9:35 AM,21.2,12.2,68,30.14,10.0,NW,10.4,-,N/A,,Clear,320,2013-11-05 16:35:00
9:55 AM,23.0,12.2,63,30.14,10.0,WNW,10.4,-,N/A,,Clear,300,2013-11-05 16:55:00
10:15 AM,23.0,10.4,59,30.14,10.0,WNW,11.5,-,N/A,,Clear,300,2013-11-05 17:15:00
10:35 AM,24.8,8.6,50,30.14,10.0,WNW,12.7,18.4,N/A,,Scattered Clouds,300,2013-11-05 17:35:00
10:55 AM,26.6,8.6,47,30.14,10.0,WNW,16.1,19.6,N/A,,Mostly Cloudy,300,2013-11-05 17:55:00
11:15 AM,26.6,8.6,47,30.14,10.0,WNW,12.7,-,N/A,,Scattered Clouds,290,2013-11-05 18:15:00
11:35 AM,26.6,6.8,43,30.14,10.0,NW,17.3,21.9,N/A,,Scattered Clouds,310,2013-11-05 18:35:00
11:55 AM,28.4,6.8,40,30.13,10.0,NW,16.1,21.9,N/A,,Scattered Clouds,310,2013-11-05 18:55:00
12:15 PM,28.4,6.8,40,30.13,10.0,WNW,15.0,20.7,N/A,,Scattered Clouds,300,2013-11-05 19:15:00
12:35 PM,28.4,6.8,40,30.12,10.0,NW,18.4,26.5,N/A,,Scattered Clouds,310,2013-11-05 19:35:00
12:55 PM,28.4,5.0,37,30.11,10.0,WNW,12.7,24.2,N/A,,Scattered Clouds,300,2013-11-05 19:55:00
1:15 PM,28.4,5.0,37,30.11,10.0,West,13.8,24.2,N/A,,Clear,280,2013-11-05 20:15:00
1:35 PM,28.4,5.0,37,30.11,10.0,WNW,17.3,20.7,N/A,,Clear,300,2013-11-05 20:35:00
1:55 PM,28.4,6.8,40,30.11,10.0,WNW,12.7,21.9,N/A,,Clear,300,2013-11-05 20:55:00
2:15 PM,28.4,5.0,37,30.12,10.0,NW,17.3,-,N/A,,Clear,310,2013-11-05 21:15:00
2:35 PM,30.2,5.0,34,30.13,10.0,NW,13.8,24.2,N/A,,Clear,310,2013-11-05 21:35:00
2:55 PM,30.2,6.8,37,30.13,10.0,WNW,13.8,21.9,N/A,,Clear,290,2013-11-05 21:55:00
3:15 PM,28.4,5.0,37,30.13,10.0,NW,18.4,24.2,N/A,,Clear,310,2013-11-05 22:15:00
3:35 PM,28.4,5.0,37,30.14,10.0,WNW,17.3,23.0,N/A,,Clear,300,2013-11-05 22:35:00
3:55 PM,28.4,5.0,37,30.14,10.0,WNW,16.1,-,N/A,,Clear,300,2013-11-05 22:55:00
4:15 PM,28.4,8.6,43,30.14,10.0,WNW,13.8,-,N/A,,Clear,300,2013-11-05 23:15:00
4:35 PM,26.6,5.0,40,30.15,10.0,WNW,13.8,23.0,N/A,,Clear,300,2013-11-05 23:35:00
4:55 PM,24.8,8.6,50,30.15,10.0,NW,11.5,-,N/A,,Clear,310,2013-11-05 23:55:00
5:15 PM,23.0,8.6,54,30.16,10.0,WNW,15.0,-,N/A,,Clear,300,2013-11-06 00:15:00
5:35 PM,23.0,8.6,54,30.16,10.0,NW,16.1,-,N/A,,Clear,310,2013-11-06 00:35:00
5:55 PM,21.2,8.6,58,30.16,10.0,NW,15.0,-,N/A,,Clear,310,2013-11-06 00:55:00
6:15 PM,21.2,8.6,58,30.18,10.0,West,3.5,-,N/A,,Clear,280,2013-11-06 01:15:00
6:35 PM,19.4,10.4,68,30.19,10.0,NNW,6.9,-,N/A,,Clear,330,2013-11-06 01:35:00
6:55 PM,19.4,10.4,68,30.19,10.0,WNW,9.2,-,N/A,,Clear,300,2013-11-06 01:55:00
7:15 PM,19.4,10.4,68,30.19,10.0,WNW,11.5,-,N/A,,Clear,300,2013-11-06 02:15:00
7:35 PM,19.4,10.4,68,30.19,10.0,WNW,6.9,-,N/A,,Clear,290,2013-11-06 02:35:00
7:55 PM,17.6,10.4,73,30.19,10.0,West,6.9,-,N/A,,Clear,260,2013-11-06 02:55:00
8:15 PM,17.6,10.4,73,30.20,10.0,West,8.1,-,N/A,,Clear,270,2013-11-06 03:15:00
8:35 PM,15.8,10.4,79,30.20,10.0,WNW,5.8,-,N/A,,Scattered Clouds,290,2013-11-06 03:35:00
8:55 PM,15.8,10.4,79,30.21,10.0,WNW,3.5,-,N/A,,Scattered Clouds,290,2013-11-06 03:55:00
9:15 PM,14.0,10.4,86,30.21,10.0,Calm,Calm,-,N/A,,Scattered Clouds,0,2013-11-06 04:15:00
9:35 PM,15.8,10.4,79,30.21,10.0,Calm,Calm,-,N/A,,Scattered Clouds,0,2013-11-06 04:35:00
9:55 PM,17.6,10.4,73,30.21,10.0,Calm,Calm,-,N/A,,Mostly Cloudy,0,2013-11-06 04:55:00
10:15 PM,14.0,10.4,86,30.21,10.0,Calm,Calm,-,N/A,,Scattered Clouds,0,2013-11-06 05:15:00
10:35 PM,14.0,10.4,86,30.21,10.0,West,3.5,-,N/A,,Clear,280,2013-11-06 05:35:00
10:55 PM,14.0,10.4,86,30.21,10.0,NW,4.6,-,N/A,,Clear,320,2013-11-06 05:55:00
11:35 PM,14.0,12.2,93,30.21,10.0,NNW,4.6,-,N/A,,Mostly Cloudy,330,2013-11-06 06:35:00
11:55 PM,15.8,12.2,86,30.21,10.0,NNW,3.5,-,N/A,,Scattered Clouds,330,2013-11-06 06:55:00